When you browse on this site, cookies collect data to enhance your experience and personalize the content and advertising you see.
Visit our Privacy Policy to learn more. By continuing to use the site, you agree to this use of cookies and data.
  • In Switzerland
  • List of Countries
  • For 7 days
  • Water Temperature
  • Satellite Maps
  • Weather Map
  • Weather Widgets
  • user-avatar
    Login

    Hourly Weather Tomashivka

    Today, 17 July, Wednesday

    Time Temperature Precipitation Wind Pressure Humidity
    00:00 +15°C° 0 mm 2 mps 739 mmHg 88%
    01:00 +15°C° 0 mm 1 mps 739 mmHg 88%
    02:00 +14°C° 0 mm 1 mps 739 mmHg 89%
    03:00 +14°C° 0 mm 1 mps 739 mmHg 89%
    04:00 +14°C° 0 mm 1 mps 739 mmHg 88%
    05:00 +14°C° 0 mm 1 mps 739 mmHg 88%
    06:00 +16°C° 0.1 mm 1 mps 739 mmHg 83%
    07:00 +18°C° 0.1 mm 2 mps 739 mmHg 77%
    08:00 +20°C° 0.1 mm 2 mps 739 mmHg 72%
    09:00 +20°C° 0.5 mm 2 mps 739 mmHg 70%
    10:00 +21°C° 0.5 mm 3 mps 739 mmHg 67%
    11:00 +21°C° 0.5 mm 4 mps 739 mmHg 65%
    12:00 +21°C° 0.4 mm 4 mps 739 mmHg 66%
    13:00 +21°C° 0.4 mm 4 mps 739 mmHg 66%
    14:00 +21°C° 0.4 mm 5 mps 739 mmHg 67%
    15:00 +21°C° 0 mm 4 mps 739 mmHg 66%
    16:00 +21°C° 0 mm 4 mps 739 mmHg 66%
    17:00 +21°C° 0 mm 4 mps 739 mmHg 66%
    18:00 +19°C° 0.1 mm 3 mps 739 mmHg 72%
    19:00 +18°C° 0.1 mm 3 mps 739 mmHg 78%
    20:00 +16°C° 0.1 mm 2 mps 739 mmHg 84%
    21:00 +16°C° 0.1 mm 2 mps 739 mmHg 85%
    22:00 +15°C° 0.1 mm 2 mps 739 mmHg 86%
    23:00 +15°C° 0.1 mm 2 mps 739 mmHg 87%

    Tomorrow, 18 July, Thursday

    Time Temperature Precipitation Wind Pressure Humidity
    00:00 +14°C° 0 mm 2 mps 739 mmHg 89%
    01:00 +14°C° 0 mm 2 mps 739 mmHg 91%
    02:00 +12°C° 0 mm 3 mps 739 mmHg 93%
    03:00 +13°C° 0 mm 2 mps 739 mmHg 93%
    04:00 +13°C° 0 mm 2 mps 739 mmHg 93%
    05:00 +13°C° 0 mm 2 mps 739 mmHg 94%
    06:00 +13°C° 0 mm 3 mps 739 mmHg 88%
    07:00 +16°C° 0 mm 3 mps 739 mmHg 83%
    08:00 +17°C° 0 mm 4 mps 740 mmHg 77%
    09:00 +18°C° 0 mm 4 mps 740 mmHg 72%
    10:00 +19°C° 0 mm 4 mps 740 mmHg 67%
    11:00 +20°C° 0 mm 5 mps 740 mmHg 62%
    12:00 +21°C° 0.2 mm 5 mps 740 mmHg 62%
    13:00 +21°C° 0.2 mm 5 mps 740 mmHg 62%
    14:00 +21°C° 0.2 mm 6 mps 740 mmHg 62%
    15:00 +21°C° 0.3 mm 5 mps 740 mmHg 65%
    16:00 +21°C° 0.3 mm 5 mps 741 mmHg 68%
    17:00 +21°C° 0.3 mm 5 mps 741 mmHg 71%
    18:00 +19°C° 0.1 mm 4 mps 741 mmHg 77%
    19:00 +18°C° 0.1 mm 3 mps 741 mmHg 83%
    20:00 +16°C° 0.1 mm 3 mps 741 mmHg 89%
    21:00 +16°C° 0 mm 3 mps 742 mmHg 91%
    22:00 +14°C° 0 mm 3 mps 742 mmHg 92%
    23:00 +14°C° 0 mm 3 mps 742 mmHg 94%

    Day after tomorrow, 19 July, Friday

    Time Temperature Precipitation Wind Pressure Humidity
    00:00 +13°C° 0 mm 3 mps 742 mmHg 94%
    01:00 +13°C° 0 mm 3 mps 742 mmHg 95%
    02:00 +13°C° 0 mm 3 mps 742 mmHg 95%
    03:00 +13°C° 0 mm 3 mps 743 mmHg 95%
    04:00 +13°C° 0 mm 3 mps 743 mmHg 95%
    05:00 +13°C° 0 mm 3 mps 743 mmHg 96%
    06:00 +14°C° 0 mm 4 mps 743 mmHg 92%
    07:00 +17°C° 0 mm 4 mps 743 mmHg 87%
    08:00 +18°C° 0 mm 4 mps 744 mmHg 83%
    09:00 +20°C° 0 mm 4 mps 744 mmHg 79%
    10:00 +21°C° 0 mm 4 mps 744 mmHg 74%
    11:00 +22°C° 0 mm 5 mps 744 mmHg 70%
    12:00 +23°C° 0.2 mm 5 mps 744 mmHg 68%
    13:00 +23°C° 0.2 mm 5 mps 744 mmHg 65%
    14:00 +23°C° 0.2 mm 5 mps 744 mmHg 63%
    15:00 +23°C° 0 mm 5 mps 744 mmHg 64%
    16:00 +23°C° 0 mm 4 mps 744 mmHg 65%
    17:00 +23°C° 0 mm 4 mps 745 mmHg 66%
    18:00 +21°C° 0 mm 3 mps 745 mmHg 72%
    19:00 +20°C° 0 mm 2 mps 745 mmHg 78%
    20:00 +19°C° 0 mm 1 mps 745 mmHg 83%
    21:00 +18°C° 0 mm 1 mps 746 mmHg 84%
    22:00 +18°C° 0 mm 1 mps 746 mmHg 85%
    23:00 +16°C° 0 mm 2 mps 746 mmHg 87%

    20 July, Saturday

    Time Temperature Precipitation Wind Pressure Humidity
    00:00 +16°C° 0 mm 2 mps 746 mmHg 87%
    01:00 +16°C° 0 mm 2 mps 746 mmHg 87%
    02:00 +15°C° 0 mm 2 mps 746 mmHg 87%
    03:00 +15°C° 0 mm 2 mps 746 mmHg 87%
    04:00 +15°C° 0 mm 2 mps 746 mmHg 87%
    05:00 +15°C° 0 mm 2 mps 747 mmHg 88%
    06:00 +17°C° 0 mm 2 mps 747 mmHg 82%
    07:00 +19°C° 0 mm 2 mps 747 mmHg 77%
    08:00 +21°C° 0 mm 3 mps 747 mmHg 71%
    09:00 +22°C° 0.1 mm 3 mps 748 mmHg 67%
    10:00 +25°C° 0.1 mm 3 mps 748 mmHg 63%
    11:00 +26°C° 0.1 mm 4 mps 748 mmHg 59%
    12:00 +26°C° 0.2 mm 4 mps 748 mmHg 58%
    13:00 +26°C° 0.2 mm 4 mps 748 mmHg 57%
    14:00 +26°C° 0.2 mm 4 mps 748 mmHg 56%
    15:00 +26°C° 0 mm 3 mps 748 mmHg 59%
    16:00 +26°C° 0 mm 3 mps 748 mmHg 63%
    17:00 +25°C° 0 mm 2 mps 748 mmHg 66%
    18:00 +24°C° 0 mm 2 mps 748 mmHg 69%
    19:00 +22°C° 0 mm 1 mps 748 mmHg 72%
    20:00 +21°C° 0 mm 1 mps 748 mmHg 75%
    21:00 +20°C° 0 mm 1 mps 748 mmHg 78%
    22:00 +19°C° 0 mm 1 mps 748 mmHg 80%
    23:00 +17°C° 0 mm 0 mps 748 mmHg 82%

    21 July, Sunday

    Time Temperature Precipitation Wind Pressure Humidity
    00:00 +17°C° 0 mm 0 mps 748 mmHg 82%
    01:00 +18°C° 0 mm 1 mps 748 mmHg 83%
    02:00 +18°C° 0 mm 1 mps 748 mmHg 83%
    03:00 +18°C° 0 mm 1 mps 748 mmHg 84%
    04:00 +18°C° 0 mm 1 mps 748 mmHg 85%
    05:00 +18°C° 0 mm 1 mps 748 mmHg 85%
    06:00 +20°C° 0 mm 1 mps 748 mmHg 80%
    07:00 +20°C° 0 mm 0 mps 748 mmHg 74%
    08:00 +22°C° 0 mm 0 mps 748 mmHg 69%
    09:00 +23°C° 0.6 mm 0 mps 748 mmHg 64%
    10:00 +24°C° 0.6 mm 0 mps 748 mmHg 60%
    11:00 +27°C° 0.6 mm 1 mps 748 mmHg 55%
    12:00 +27°C° 0.1 mm 1 mps 748 mmHg 53%
    13:00 +28°C° 0.1 mm 1 mps 748 mmHg 51%
    14:00 +28°C° 0.1 mm 2 mps 748 mmHg 48%
    15:00 +28°C° 0 mm 2 mps 748 mmHg 51%
    16:00 +28°C° 0 mm 2 mps 748 mmHg 54%
    17:00 +27°C° 0 mm 2 mps 748 mmHg 57%
    18:00 +26°C° 0 mm 2 mps 748 mmHg 62%
    19:00 +24°C° 0 mm 1 mps 748 mmHg 67%
    20:00 +22°C° 0 mm 1 mps 748 mmHg 71%
    21:00 +21°C° 0 mm 1 mps 748 mmHg 74%
    22:00 +20°C° 0 mm 1 mps 748 mmHg 77%
    23:00 +20°C° 0 mm 1 mps 748 mmHg 80%

    22 July, Monday

    Time Temperature Precipitation Wind Pressure Humidity
    00:00 +19°C° 0 mm 1 mps 748 mmHg 81%
    01:00 +19°C° 0 mm 1 mps 748 mmHg 83%
    02:00 +19°C° 0 mm 1 mps 748 mmHg 84%
    03:00 +19°C° 0 mm 1 mps 748 mmHg 84%
    04:00 +17°C° 0 mm 0 mps 748 mmHg 83%
    05:00 +17°C° 0 mm 0 mps 748 mmHg 83%
    06:00 +19°C° 0 mm 0 mps 748 mmHg 77%
    07:00 +23°C° 0 mm 1 mps 748 mmHg 72%
    08:00 +24°C° 0 mm 1 mps 748 mmHg 67%
    09:00 +25°C° 0.1 mm 1 mps 748 mmHg 63%
    10:00 +26°C° 0.1 mm 1 mps 748 mmHg 59%
    11:00 +28°C° 0.1 mm 1 mps 748 mmHg 55%
    12:00 +27°C° 0.4 mm 1 mps 748 mmHg 59%
    13:00 +27°C° 0.4 mm 1 mps 748 mmHg 63%
    14:00 +26°C° 0.4 mm 1 mps 747 mmHg 68%
    15:00 +26°C° 0.2 mm 1 mps 747 mmHg 66%
    16:00 +27°C° 0.2 mm 1 mps 747 mmHg 65%
    17:00 +27°C° 0.2 mm 2 mps 747 mmHg 64%
    18:00 +25°C° 0.7 mm 2 mps 747 mmHg 71%
    19:00 +24°C° 0.7 mm 2 mps 746 mmHg 78%
    20:00 +21°C° 0.7 mm 2 mps 746 mmHg 85%
    21:00 +21°C° 0.6 mm 2 mps 746 mmHg 88%
    22:00 +20°C° 0.6 mm 3 mps 746 mmHg 91%
    23:00 +19°C° 0.6 mm 4 mps 746 mmHg 94%
    Show more